Time,TemperatureF,DewpointF,PressureIn,WindDirection,WindDirectionDegrees,WindSpeedMPH,WindSpeedGustMPH,Humidity,HourlyPrecipIn,Conditions,Clouds,dailyrainin,SoftwareType,DateUTC
2013-01-19 00:03:00,32.8,32.0,30.30,South,180,1.0,1.0,97,0.00,,OVC002,0.00,VWS V14.01,2013-01-19 08:03:00,
2013-01-19 00:08:00,32.7,31.7,30.30,South,182,0.0,0.0,96,0.00,,OVC002,0.00,VWS V14.01,2013-01-19 08:08:00,
2013-01-19 00:13:00,32.6,31.6,30.30,South,182,0.0,0.0,96,0.00,,OVC002,0.00,VWS V14.01,2013-01-19 08:13:00,
2013-01-19 00:18:00,32.6,31.6,30.30,South,182,0.0,0.0,96,0.00,,OVC002,0.00,VWS V14.01,2013-01-19 08:18:00,
2013-01-19 00:23:00,32.6,31.6,30.30,South,182,0.0,0.0,96,0.00,,OVC002,0.00,VWS V14.01,2013-01-19 08:23:00,
2013-01-19 00:28:00,32.5,31.5,30.31,South,181,0.0,0.0,96,0.00,,OVC003,0.00,VWS V14.01,2013-01-19 08:28:00,
2013-01-19 00:33:00,32.6,31.6,30.30,South,182,0.0,0.0,96,0.00,,OVC003,0.00,VWS V14.01,2013-01-19 08:33:00,
2013-01-19 00:38:00,32.5,31.7,30.30,South,182,0.0,0.0,97,0.00,,OVC003,0.00,VWS V14.01,2013-01-19 08:38:00,
2013-01-19 00:43:00,32.5,31.7,30.30,South,182,0.0,0.0,97,0.00,,OVC003,0.00,VWS V14.01,2013-01-19 08:43:00,
2013-01-19 00:48:00,32.4,31.6,30.30,South,182,0.0,0.0,97,0.00,,OVC002,0.00,VWS V14.01,2013-01-19 08:48:00,
2013-01-19 00:53:00,32.5,31.7,30.30,South,181,0.0,0.0,97,0.00,,OVC002,0.00,VWS V14.01,2013-01-19 08:53:00,
2013-01-19 00:58:00,32.4,31.6,30.30,South,182,0.0,0.0,97,0.00,,OVC002,0.00,VWS V14.01,2013-01-19 08:58:00,
2013-01-19 01:03:00,32.4,31.6,30.30,South,181,0.0,0.0,97,0.00,,OVC002,0.00,VWS V14.01,2013-01-19 09:03:00,
2013-01-19 01:08:00,32.4,31.6,30.30,South,182,0.0,0.0,97,0.00,,OVC002,0.00,VWS V14.01,2013-01-19 09:08:00,
2013-01-19 01:13:00,32.4,31.6,30.31,South,182,0.0,0.0,97,0.00,,OVC002,0.00,VWS V14.01,2013-01-19 09:13:00,
2013-01-19 01:18:00,32.4,31.6,30.30,South,182,0.0,0.0,97,0.00,,OVC002,0.00,VWS V14.01,2013-01-19 09:18:00,
2013-01-19 01:23:00,32.3,31.5,30.31,SE,130,1.0,1.0,97,0.00,,OVC002,0.00,VWS V14.01,2013-01-19 09:23:00,
2013-01-19 01:28:00,32.2,31.5,30.31,SE,129,0.0,0.0,97,0.00,,OVC002,0.00,VWS V14.01,2013-01-19 09:28:00,
2013-01-19 01:33:00,32.2,31.5,30.31,SE,129,0.0,1.0,97,0.00,,OVC002,0.00,VWS V14.01,2013-01-19 09:33:00,
2013-01-19 01:38:00,32.1,31.4,30.31,SE,129,0.0,0.0,97,0.00,,OVC002,0.00,VWS V14.01,2013-01-19 09:38:00,
2013-01-19 01:43:00,32.0,31.2,30.31,ESE,109,1.0,1.0,97,0.00,,OVC002,0.00,VWS V14.01,2013-01-19 09:43:00,
2013-01-19 01:48:00,31.9,31.1,30.31,ESE,109,0.0,0.0,97,0.00,,OVC002,0.00,VWS V14.01,2013-01-19 09:48:00,
2013-01-19 01:53:00,31.9,31.1,30.31,ESE,109,0.0,1.0,97,0.00,,OVC002,0.00,VWS V14.01,2013-01-19 09:53:00,
2013-01-19 01:58:00,31.9,31.1,30.31,ESE,109,0.0,1.0,97,0.00,,OVC002,0.00,VWS V14.01,2013-01-19 09:58:00,
2013-01-19 02:03:00,31.9,31.1,30.32,ESE,109,0.0,0.0,97,0.00,,OVC002,0.00,VWS V14.01,2013-01-19 10:03:00,
2013-01-19 02:08:00,31.9,31.1,30.32,ESE,109,0.0,1.0,97,0.00,,OVC002,0.00,VWS V14.01,2013-01-19 10:08:00,
2013-01-19 02:13:00,31.9,31.1,30.32,ESE,109,0.0,0.0,97,0.00,,OVC002,0.00,VWS V14.01,2013-01-19 10:13:00,
2013-01-19 02:18:00,31.9,31.1,30.32,SSE,150,0.0,0.0,97,0.00,,OVC002,0.00,VWS V14.01,2013-01-19 10:18:00,
2013-01-19 02:23:00,31.8,31.0,30.32,East,94,1.0,1.0,97,0.00,,OVC002,0.00,VWS V14.01,2013-01-19 10:23:00,
2013-01-19 02:28:00,31.7,31.0,30.32,East,94,1.0,2.0,97,0.00,,OVC002,0.00,VWS V14.01,2013-01-19 10:28:00,
2013-01-19 02:33:00,31.6,30.9,30.32,East,94,0.0,1.0,97,0.00,,OVC002,0.00,VWS V14.01,2013-01-19 10:33:00,
2013-01-19 02:38:00,31.6,30.9,30.32,East,94,0.0,0.0,97,0.00,,OVC002,0.00,VWS V14.01,2013-01-19 10:38:00,
2013-01-19 02:43:00,31.6,30.9,30.32,East,94,0.0,0.0,97,0.00,,OVC002,0.00,VWS V14.01,2013-01-19 10:43:00,
2013-01-19 02:48:00,31.6,30.9,30.32,East,94,0.0,0.0,97,0.00,,OVC003,0.00,VWS V14.01,2013-01-19 10:48:00,
2013-01-19 02:53:00,31.6,30.9,30.32,East,95,0.0,1.0,97,0.00,,OVC003,0.00,VWS V14.01,2013-01-19 10:53:00,
2013-01-19 02:58:00,31.6,30.9,30.32,East,95,0.0,1.0,97,0.00,,OVC003,0.00,VWS V14.01,2013-01-19 10:58:00,
2013-01-19 03:03:00,31.6,30.9,30.32,East,95,0.0,0.0,97,0.00,,OVC003,0.00,VWS V14.01,2013-01-19 11:03:00,
2013-01-19 03:08:00,31.6,30.9,30.32,ESE,103,0.0,1.0,97,0.00,,OVC003,0.00,VWS V14.01,2013-01-19 11:08:00,
2013-01-19 03:13:00,31.5,30.8,30.32,ESE,103,0.0,0.0,97,0.00,,OVC003,0.00,VWS V14.01,2013-01-19 11:13:00,
2013-01-19 04:48:00,31.1,30.4,30.32,East,98,0.0,1.0,97,0.00,,OVC005,0.00,VWS V14.01,2013-01-19 12:48:00,
2013-01-19 04:53:00,31.2,30.5,30.32,East,98,0.0,0.0,97,0.00,,OVC005,0.00,VWS V14.01,2013-01-19 12:53:00,
2013-01-19 04:58:00,31.1,30.4,30.32,East,98,0.0,0.0,97,0.00,,OVC005,0.00,VWS V14.01,2013-01-19 12:58:00,
2013-01-19 05:03:00,31.1,30.4,30.32,East,98,0.0,0.0,97,0.00,,OVC005,0.00,VWS V14.01,2013-01-19 13:03:00,
2013-01-19 05:08:00,31.0,30.2,30.32,East,98,0.0,0.0,97,0.00,,OVC005,0.00,VWS V14.01,2013-01-19 13:08:00,
2013-01-19 05:13:00,31.0,30.2,30.32,East,98,0.0,0.0,97,0.00,,OVC005,0.00,VWS V14.01,2013-01-19 13:13:00,
2013-01-19 05:18:00,31.0,30.2,30.32,East,98,0.0,0.0,97,0.00,,OVC005,0.00,VWS V14.01,2013-01-19 13:18:00,
2013-01-19 05:23:00,31.0,30.2,30.32,East,98,0.0,0.0,97,0.00,,OVC005,0.00,VWS V14.01,2013-01-19 13:23:00,
2013-01-19 05:28:00,31.0,30.2,30.32,East,98,0.0,1.0,97,0.00,,OVC005,0.00,VWS V14.01,2013-01-19 13:28:00,
2013-01-19 05:33:00,31.1,30.4,30.32,East,98,0.0,0.0,97,0.00,,OVC005,0.00,VWS V14.01,2013-01-19 13:33:00,
2013-01-19 05:38:00,31.1,30.4,30.32,East,98,0.0,0.0,97,0.00,,OVC005,0.00,VWS V14.01,2013-01-19 13:38:00,
2013-01-19 05:43:00,31.0,30.2,30.32,East,98,0.0,0.0,97,0.00,,OVC005,0.00,VWS V14.01,2013-01-19 13:43:00,
2013-01-19 05:48:00,31.0,30.2,30.32,East,98,0.0,0.0,97,0.00,,OVC005,0.00,VWS V14.01,2013-01-19 13:48:00,
2013-01-19 05:53:00,31.0,30.2,30.32,East,98,0.0,0.0,97,0.00,,OVC005,0.00,VWS V14.01,2013-01-19 13:53:00,
2013-01-19 05:58:00,31.0,30.2,30.32,East,98,0.0,0.0,97,0.00,,OVC005,0.00,VWS V14.01,2013-01-19 13:58:00,
2013-01-19 06:03:00,31.0,30.2,30.32,East,98,0.0,0.0,97,0.00,,OVC005,0.00,VWS V14.01,2013-01-19 14:03:00,
2013-01-19 06:08:00,30.9,30.1,30.32,East,98,0.0,0.0,97,0.00,,OVC005,0.00,VWS V14.01,2013-01-19 14:08:00,
2013-01-19 06:13:00,30.9,30.1,30.32,East,98,0.0,0.0,97,0.00,,OVC005,0.00,VWS V14.01,2013-01-19 14:13:00,
2013-01-19 06:18:00,30.9,30.1,30.32,East,98,0.0,0.0,97,0.00,,OVC005,0.00,VWS V14.01,2013-01-19 14:18:00,
2013-01-19 06:23:00,30.9,30.1,30.32,East,98,0.0,0.0,97,0.00,,OVC005,0.00,VWS V14.01,2013-01-19 14:23:00,
2013-01-19 06:28:00,30.8,30.0,30.32,ENE,71,1.0,1.0,97,0.00,,OVC005,0.00,VWS V14.01,2013-01-19 14:28:00,
2013-01-19 06:33:00,30.8,30.0,30.32,ENE,63,0.0,0.0,97,0.00,,OVC005,0.00,VWS V14.01,2013-01-19 14:33:00,
2013-01-19 06:38:00,30.7,30.0,30.32,East,90,0.0,2.0,97,0.00,,OVC005,0.00,VWS V14.01,2013-01-19 14:38:00,
2013-01-19 06:43:00,30.8,30.0,30.32,East,90,0.0,0.0,97,0.00,,OVC005,0.00,VWS V14.01,2013-01-19 14:43:00,
2013-01-19 06:48:00,30.8,30.0,30.32,East,90,0.0,0.0,97,0.00,,OVC005,0.00,VWS V14.01,2013-01-19 14:48:00,
2013-01-19 06:53:00,30.8,30.0,30.32,East,90,0.0,0.0,97,0.00,,OVC005,0.00,VWS V14.01,2013-01-19 14:53:00,
2013-01-19 06:58:00,30.8,30.0,30.33,East,90,0.0,0.0,97,0.00,,OVC006,0.00,VWS V14.01,2013-01-19 14:58:00,
2013-01-19 07:03:00,30.8,30.0,30.33,East,90,0.0,0.0,97,0.00,,OVC006,0.00,VWS V14.01,2013-01-19 15:03:00,
2013-01-19 07:08:00,30.8,30.0,30.33,East,90,0.0,0.0,97,0.00,,OVC006,0.00,VWS V14.01,2013-01-19 15:08:00,
2013-01-19 07:13:00,30.8,30.0,30.33,ESE,106,0.0,1.0,97,0.00,,OVC006,0.00,VWS V14.01,2013-01-19 15:13:00,
2013-01-19 07:18:00,30.7,30.0,30.33,ESE,106,0.0,0.0,97,0.00,,OVC006,0.00,VWS V14.01,2013-01-19 15:18:00,
2013-01-19 07:23:00,30.7,30.0,30.33,ESE,106,0.0,0.0,97,0.00,,OVC006,0.00,VWS V14.01,2013-01-19 15:23:00,
2013-01-19 07:28:00,30.7,30.0,30.32,ESE,107,0.0,0.0,97,0.00,,BKN008,0.00,VWS V14.01,2013-01-19 15:28:00,
2013-01-19 07:33:00,30.7,30.0,30.33,ESE,106,0.0,0.0,97,0.00,,BKN008,0.00,VWS V14.01,2013-01-19 15:33:00,
2013-01-19 07:38:00,30.8,30.0,30.33,ESE,106,0.0,1.0,97,0.00,,BKN008,0.00,VWS V14.01,2013-01-19 15:38:00,
2013-01-19 07:43:00,30.7,30.0,30.33,ESE,106,0.0,1.0,97,0.00,,BKN008,0.00,VWS V14.01,2013-01-19 15:43:00,
2013-01-19 07:48:00,30.7,30.0,30.33,ESE,107,0.0,0.0,97,0.00,,OVC008,0.00,VWS V14.01,2013-01-19 15:48:00,
2013-01-19 07:53:00,30.7,30.0,30.33,ESE,106,0.0,0.0,97,0.00,,OVC008,0.00,VWS V14.01,2013-01-19 15:53:00,
2013-01-19 07:58:00,30.6,29.9,30.33,ESE,106,0.0,0.0,97,0.00,,OVC008,0.00,VWS V14.01,2013-01-19 15:58:00,
2013-01-19 08:03:00,30.6,29.9,30.33,ESE,106,0.0,0.0,97,0.00,,OVC008,0.00,VWS V14.01,2013-01-19 16:03:00,
2013-01-19 08:08:00,30.6,29.9,30.33,ESE,107,0.0,0.0,97,0.00,,OVC008,0.00,VWS V14.01,2013-01-19 16:08:00,
2013-01-19 08:13:00,30.6,29.9,30.33,ESE,107,0.0,0.0,97,0.00,,OVC008,0.00,VWS V14.01,2013-01-19 16:13:00,
2013-01-19 08:18:00,30.6,29.9,30.34,ESE,106,0.0,0.0,97,0.00,,OVC008,0.00,VWS V14.01,2013-01-19 16:18:00,
2013-01-19 08:23:00,30.7,30.0,30.34,ESE,107,0.0,0.0,97,0.00,,OVC008,0.00,VWS V14.01,2013-01-19 16:23:00,
2013-01-19 08:28:00,30.7,30.0,30.34,ESE,106,0.0,0.0,97,0.00,,BKN006,0.00,VWS V14.01,2013-01-19 16:28:00,
2013-01-19 08:33:00,30.8,30.0,30.34,ESE,106,0.0,1.0,97,0.00,,BKN006,0.00,VWS V14.01,2013-01-19 16:33:00,
2013-01-19 08:38:00,30.8,30.0,30.34,ESE,108,0.0,1.0,97,0.00,,BKN006,0.00,VWS V14.01,2013-01-19 16:38:00,
2013-01-19 08:43:00,30.7,30.0,30.34,SW,230,2.0,4.0,97,0.00,,BKN006,0.00,VWS V14.01,2013-01-19 16:43:00,
2013-01-19 08:48:00,30.8,30.0,30.34,SW,221,2.0,3.0,97,0.00,,BKN006,0.00,VWS V14.01,2013-01-19 16:48:00,
2013-01-19 08:53:00,30.8,30.0,30.34,SW,217,1.0,4.0,97,0.00,,BKN006,0.00,VWS V14.01,2013-01-19 16:53:00,
2013-01-19 08:58:00,30.9,30.1,30.34,WSW,246,1.0,2.0,97,0.00,,BKN006,0.00,VWS V14.01,2013-01-19 16:58:00,
2013-01-19 09:03:00,30.9,30.1,30.35,SW,233,2.0,2.0,97,0.00,,BKN006,0.00,VWS V14.01,2013-01-19 17:03:00,
2013-01-19 09:08:00,31.0,30.2,30.35,South,178,1.0,1.0,97,0.00,,BKN004,0.00,VWS V14.01,2013-01-19 17:08:00,
2013-01-19 09:13:00,31.1,30.4,30.35,South,178,0.0,0.0,97,0.00,,BKN004,0.00,VWS V14.01,2013-01-19 17:13:00,
2013-01-19 09:18:00,31.1,30.4,30.35,ESE,122,0.0,1.0,97,0.00,,BKN004,0.00,VWS V14.01,2013-01-19 17:18:00,
2013-01-19 09:23:00,31.2,30.5,30.35,ESE,121,0.0,1.0,97,0.00,,BKN004,0.00,VWS V14.01,2013-01-19 17:23:00,
2013-01-19 09:28:00,31.1,30.4,30.35,SE,126,0.0,0.0,97,0.00,,SCT004,0.00,VWS V14.01,2013-01-19 17:28:00,
2013-01-19 09:33:00,31.0,30.2,30.35,South,183,0.0,0.0,97,0.00,,SCT004,0.00,VWS V14.01,2013-01-19 17:33:00,
2013-01-19 09:38:00,31.0,30.2,30.35,East,94,1.0,2.0,97,0.00,,SCT004,0.00,VWS V14.01,2013-01-19 17:38:00,
2013-01-19 09:44:00,31.1,30.4,30.35,East,94,0.0,0.0,97,0.00,,FEW007,0.00,VWS V14.01,2013-01-19 17:44:00,
2013-01-19 09:49:00,31.3,30.5,30.35,East,94,0.0,1.0,97,0.00,,FEW007,0.00,VWS V14.01,2013-01-19 17:49:00,
2013-01-19 09:54:00,31.4,30.6,30.35,ENE,62,1.0,2.0,97,0.00,,FEW007,0.00,VWS V14.01,2013-01-19 17:54:00,
2013-01-19 09:59:00,31.3,30.3,30.35,ENE,67,0.0,1.0,96,0.00,,FEW007,0.00,VWS V14.01,2013-01-19 17:59:00,
2013-01-19 10:04:00,31.5,30.8,30.35,ESE,103,0.0,2.0,97,0.00,,FEW007,0.00,VWS V14.01,2013-01-19 18:04:00,
2013-01-19 10:09:00,31.6,30.6,30.35,ESE,103,0.0,0.0,96,0.00,,FEW007,0.00,VWS V14.01,2013-01-19 18:09:00,
2013-01-19 10:14:00,31.7,30.7,30.35,ESE,104,0.0,2.0,96,0.00,,FEW007,0.00,VWS V14.01,2013-01-19 18:14:00,
2013-01-19 10:19:00,31.8,30.8,30.35,ESE,103,1.0,1.0,96,0.00,,FEW007,0.00,VWS V14.01,2013-01-19 18:19:00,
2013-01-19 10:25:00,31.8,30.8,30.35,ESE,103,1.0,2.0,96,0.00,,FEW007,0.00,VWS V14.01,2013-01-19 18:25:00,
2013-01-19 10:30:00,31.8,30.8,30.35,ESE,103,0.0,1.0,96,0.00,,FEW007,0.00,VWS V14.01,2013-01-19 18:30:00,
2013-01-19 10:35:00,32.0,31.0,30.35,ESE,107,0.0,2.0,96,0.00,,FEW007,0.00,VWS V14.01,2013-01-19 18:35:00,
2013-01-19 10:40:00,32.1,31.1,30.35,East,98,1.0,2.0,96,0.00,,FEW007,0.00,VWS V14.01,2013-01-19 18:40:00,
2013-01-19 10:45:00,32.2,31.2,30.35,ENE,62,0.0,1.0,96,0.00,,CLR,0.00,VWS V14.01,2013-01-19 18:45:00,
2013-01-19 10:50:00,32.6,31.6,30.35,East,100,0.0,1.0,96,0.00,,CLR,0.00,VWS V14.01,2013-01-19 18:50:00,
2013-01-19 10:55:00,32.7,31.7,30.35,East,82,2.0,2.0,96,0.00,,CLR,0.00,VWS V14.01,2013-01-19 18:55:00,
2013-01-19 11:00:00,32.9,31.9,30.35,ENE,62,0.0,0.0,96,0.00,,CLR,0.00,VWS V14.01,2013-01-19 19:00:00,
2013-01-19 11:05:00,33.2,31.9,30.35,ENE,70,1.0,1.0,95,0.00,,CLR,0.00,VWS V14.01,2013-01-19 19:05:00,
2013-01-19 11:10:00,33.5,32.2,30.35,ENE,69,0.0,0.0,95,0.00,,CLR,0.00,VWS V14.01,2013-01-19 19:10:00,
2013-01-19 11:15:00,34.1,32.8,30.34,SE,142,1.0,2.0,95,0.00,,CLR,0.00,VWS V14.01,2013-01-19 19:15:00,
2013-01-19 11:20:00,34.1,32.6,30.34,SE,136,0.0,1.0,94,0.00,,CLR,0.00,VWS V14.01,2013-01-19 19:20:00,
2013-01-19 11:25:00,34.4,32.9,30.34,SE,136,0.0,1.0,94,0.00,,CLR,0.00,VWS V14.01,2013-01-19 19:25:00,
2013-01-19 11:30:00,34.4,32.6,30.34,SSW,196,0.0,1.0,93,0.00,,CLR,0.00,VWS V14.01,2013-01-19 19:30:00,
2013-01-19 11:36:00,34.5,33.0,30.34,SSW,196,0.0,1.0,94,0.00,,CLR,0.00,VWS V14.01,2013-01-19 19:36:00,
2013-01-19 11:41:00,34.9,33.1,30.34,East,98,1.0,2.0,93,0.00,,CLR,0.00,VWS V14.01,2013-01-19 19:41:00,
2013-01-19 11:46:00,35.2,33.4,30.33,East,85,0.0,0.0,93,0.00,,CLR,0.00,VWS V14.01,2013-01-19 19:46:00,
2013-01-19 11:51:00,35.6,33.5,30.34,ESE,102,1.0,2.0,92,0.00,,CLR,0.00,VWS V14.01,2013-01-19 19:51:00,
2013-01-19 11:56:00,35.9,33.8,30.33,ESE,102,1.0,1.0,92,0.00,,CLR,0.00,VWS V14.01,2013-01-19 19:56:00,
2013-01-19 12:01:00,36.0,33.6,30.33,East,97,2.0,2.0,91,0.00,,CLR,0.00,VWS V14.01,2013-01-19 20:01:00,
2013-01-19 12:06:00,36.5,34.4,30.33,South,179,1.0,1.0,92,0.00,,CLR,0.00,VWS V14.01,2013-01-19 20:06:00,
2013-01-19 12:11:00,37.0,34.6,30.33,ESE,115,1.0,2.0,91,0.00,,CLR,0.00,VWS V14.01,2013-01-19 20:11:00,
2013-01-19 12:16:00,37.2,34.5,30.32,ESE,107,1.0,1.0,90,0.00,,CLR,0.00,VWS V14.01,2013-01-19 20:16:00,
2013-01-19 12:21:00,37.5,34.6,30.32,NNE,31,3.0,3.0,89,0.00,,CLR,0.00,VWS V14.01,2013-01-19 20:21:00,
2013-01-19 12:26:00,37.5,34.3,30.32,ESE,103,0.0,2.0,88,0.00,,CLR,0.00,VWS V14.01,2013-01-19 20:26:00,
2013-01-19 12:31:00,37.4,34.2,30.31,East,98,1.0,2.0,88,0.00,,CLR,0.00,VWS V14.01,2013-01-19 20:31:00,
2013-01-19 12:37:00,37.5,34.6,30.31,ESE,102,1.0,1.0,89,0.00,,CLR,0.00,VWS V14.01,2013-01-19 20:37:00,
2013-01-19 12:42:00,38.0,35.0,30.31,ESE,103,2.0,2.0,89,0.00,,CLR,0.00,VWS V14.01,2013-01-19 20:42:00,
2013-01-19 12:47:00,38.4,35.2,30.31,SSW,207,0.0,1.0,88,0.00,,CLR,0.00,VWS V14.01,2013-01-19 20:47:00,
2013-01-19 12:52:00,38.8,35.6,30.31,SW,217,0.0,1.0,88,0.00,,CLR,0.00,VWS V14.01,2013-01-19 20:52:00,
2013-01-19 12:57:00,39.1,35.6,30.31,SW,222,1.0,1.0,87,0.00,,CLR,0.00,VWS V14.01,2013-01-19 20:57:00,
2013-01-19 13:02:00,39.4,35.6,30.30,WSW,250,1.0,3.0,86,0.00,,CLR,0.00,VWS V14.01,2013-01-19 21:02:00,
2013-01-19 13:07:00,39.6,35.8,30.30,WSW,252,0.0,1.0,86,0.00,,CLR,0.00,VWS V14.01,2013-01-19 21:07:00,
2013-01-19 13:13:00,40.2,36.3,30.29,ESE,106,1.0,1.0,86,0.00,,CLR,0.00,VWS V14.01,2013-01-19 21:13:00,
2013-01-19 13:18:00,40.7,36.0,30.29,WNW,298,1.0,1.0,83,0.00,,CLR,0.00,VWS V14.01,2013-01-19 21:18:00,
2013-01-19 13:23:00,40.9,36.1,30.29,NNE,28,1.0,3.0,83,0.00,,CLR,0.00,VWS V14.01,2013-01-19 21:23:00,
2013-01-19 13:28:00,41.3,36.5,30.29,ENE,58,0.0,1.0,83,0.00,,CLR,0.00,VWS V14.01,2013-01-19 21:28:00,
2013-01-19 13:34:00,41.5,36.1,30.29,ENE,69,1.0,5.0,81,0.00,,CLR,0.00,VWS V14.01,2013-01-19 21:34:00,
2013-01-19 13:39:00,41.3,36.2,30.29,NE,46,0.0,2.0,82,0.00,,CLR,0.00,VWS V14.01,2013-01-19 21:39:00,
2013-01-19 13:44:00,41.1,36.0,30.29,ESE,108,0.0,2.0,82,0.00,,CLR,0.00,VWS V14.01,2013-01-19 21:44:00,
2013-01-19 13:49:00,41.2,36.4,30.29,ESE,110,1.0,1.0,83,0.00,,CLR,0.00,VWS V14.01,2013-01-19 21:49:00,
2013-01-19 13:54:00,41.2,36.1,30.29,ESE,106,4.0,4.0,82,0.00,,CLR,0.00,VWS V14.01,2013-01-19 21:54:00,
2013-01-19 13:59:00,41.0,35.9,30.29,East,101,2.0,2.0,82,0.00,,CLR,0.00,VWS V14.01,2013-01-19 21:59:00,
2013-01-19 14:04:00,41.1,36.0,30.28,ESE,107,3.0,4.0,82,0.00,,CLR,0.00,VWS V14.01,2013-01-19 22:04:00,
2013-01-19 14:09:00,41.3,36.2,30.28,ESE,102,2.0,3.0,82,0.00,,CLR,0.00,VWS V14.01,2013-01-19 22:09:00,
2013-01-19 14:14:00,41.5,36.4,30.28,ESE,102,0.0,1.0,82,0.00,,CLR,0.00,VWS V14.01,2013-01-19 22:14:00,
2013-01-19 14:19:00,41.9,36.5,30.28,ESE,102,1.0,3.0,81,0.00,,CLR,0.00,VWS V14.01,2013-01-19 22:19:00,
2013-01-19 14:24:00,42.0,36.9,30.28,ESE,103,1.0,1.0,82,0.00,,CLR,0.00,VWS V14.01,2013-01-19 22:24:00,
2013-01-19 14:29:00,42.2,36.5,30.28,ESE,113,1.0,2.0,80,0.00,,CLR,0.00,VWS V14.01,2013-01-19 22:29:00,
2013-01-19 14:34:00,42.3,36.9,30.28,East,92,1.0,1.0,81,0.00,,CLR,0.00,VWS V14.01,2013-01-19 22:34:00,
2013-01-19 14:39:00,42.5,36.8,30.28,ESE,121,3.0,3.0,80,0.00,,CLR,0.00,VWS V14.01,2013-01-19 22:39:00,
2013-01-19 14:45:00,42.2,36.5,30.28,ESE,102,4.0,4.0,80,0.00,,CLR,0.00,VWS V14.01,2013-01-19 22:45:00,
2013-01-19 14:50:00,42.2,36.8,30.28,ESE,106,0.0,3.0,81,0.00,,CLR,0.00,VWS V14.01,2013-01-19 22:50:00,
2013-01-19 14:55:00,42.1,36.7,30.28,East,100,1.0,3.0,81,0.00,,CLR,0.00,VWS V14.01,2013-01-19 22:55:00,
2013-01-19 15:00:00,42.0,36.3,30.28,ESE,120,2.0,3.0,80,0.00,,CLR,0.00,VWS V14.01,2013-01-19 23:00:00,
2013-01-19 15:05:00,41.8,36.7,30.28,ESE,110,1.0,1.0,82,0.00,,CLR,0.00,VWS V14.01,2013-01-19 23:05:00,
2013-01-19 15:10:00,41.8,36.4,30.28,ESE,105,0.0,1.0,81,0.00,,CLR,0.00,VWS V14.01,2013-01-19 23:10:00,
2013-01-19 15:15:00,42.1,36.7,30.28,ESE,104,0.0,1.0,81,0.00,,CLR,0.00,VWS V14.01,2013-01-19 23:15:00,
2013-01-19 15:20:00,42.4,36.7,30.28,East,100,3.0,3.0,80,0.00,,CLR,0.00,VWS V14.01,2013-01-19 23:20:00,
2013-01-19 15:25:00,41.5,36.1,30.28,ESE,109,2.0,2.0,81,0.00,,CLR,0.00,VWS V14.01,2013-01-19 23:25:00,
2013-01-19 15:30:00,41.2,36.1,30.28,East,98,0.0,2.0,82,0.00,,CLR,0.00,VWS V14.01,2013-01-19 23:30:00,
2013-01-19 15:35:00,41.4,36.3,30.28,East,82,1.0,2.0,82,0.00,,CLR,0.00,VWS V14.01,2013-01-19 23:35:00,
2013-01-19 15:40:00,41.4,36.3,30.28,East,80,1.0,2.0,82,0.00,,CLR,0.00,VWS V14.01,2013-01-19 23:40:00,
2013-01-19 15:45:00,41.4,36.3,30.28,ENE,76,1.0,2.0,82,0.00,,CLR,0.00,VWS V14.01,2013-01-19 23:45:00,
2013-01-19 15:50:00,40.9,35.5,30.29,East,81,2.0,5.0,81,0.00,,CLR,0.00,VWS V14.01,2013-01-19 23:50:00,
2013-01-19 15:55:00,40.4,35.7,30.29,ENE,78,0.0,2.0,83,0.00,,CLR,0.00,VWS V14.01,2013-01-19 23:55:00,
2013-01-19 16:01:00,40.3,35.6,30.29,East,79,1.0,1.0,83,0.00,,CLR,0.00,VWS V14.01,2013-01-20 00:01:00,
2013-01-19 16:06:00,39.9,35.2,30.29,ESE,109,1.0,1.0,83,0.00,,CLR,0.00,VWS V14.01,2013-01-20 00:06:00,
2013-01-19 16:11:00,39.6,35.2,30.29,ESE,105,1.0,1.0,84,0.00,,CLR,0.00,VWS V14.01,2013-01-20 00:11:00,
2013-01-19 16:16:00,39.4,35.0,30.29,ESE,109,1.0,2.0,84,0.00,,CLR,0.00,VWS V14.01,2013-01-20 00:16:00,
2013-01-19 16:21:00,38.8,34.7,30.29,ESE,109,0.0,2.0,85,0.00,,CLR,0.00,VWS V14.01,2013-01-20 00:21:00,
2013-01-19 16:26:00,38.3,34.5,30.29,ESE,113,1.0,1.0,86,0.00,,CLR,0.00,VWS V14.01,2013-01-20 00:26:00,
2013-01-19 16:32:00,37.4,33.9,30.29,ESE,107,1.0,2.0,87,0.00,,CLR,0.00,VWS V14.01,2013-01-20 00:32:00,
2013-01-19 16:37:00,36.7,33.5,30.29,ESE,102,0.0,1.0,88,0.00,,CLR,0.00,VWS V14.01,2013-01-20 00:37:00,
2013-01-19 16:42:00,36.2,33.3,30.29,ESE,102,1.0,1.0,89,0.00,,CLR,0.00,VWS V14.01,2013-01-20 00:42:00,
2013-01-19 16:47:00,35.7,33.1,30.29,East,96,0.0,0.0,90,0.00,,CLR,0.00,VWS V14.01,2013-01-20 00:47:00,
2013-01-19 16:52:00,35.2,32.8,30.29,ESE,103,0.0,2.0,91,0.00,,CLR,0.00,VWS V14.01,2013-01-20 00:52:00,
2013-01-19 16:57:00,34.8,32.7,30.29,ESE,111,1.0,1.0,92,0.00,,CLR,0.00,VWS V14.01,2013-01-20 00:57:00,
2013-01-19 17:02:00,34.4,32.3,30.29,ESE,118,0.0,0.0,92,0.00,,CLR,0.00,VWS V14.01,2013-01-20 01:02:00,
2013-01-19 17:07:00,34.1,32.3,30.29,ESE,118,0.0,0.0,93,0.00,,CLR,0.00,VWS V14.01,2013-01-20 01:07:00,
2013-01-19 17:12:00,33.8,32.0,30.29,ESE,115,0.0,0.0,93,0.00,,CLR,0.00,VWS V14.01,2013-01-20 01:12:00,
2013-01-19 17:17:00,33.5,31.7,30.29,ESE,115,0.0,0.0,93,0.00,,CLR,0.00,VWS V14.01,2013-01-20 01:17:00,
2013-01-19 17:22:00,33.1,31.3,30.29,ESE,114,0.0,0.0,93,0.00,,CLR,0.00,VWS V14.01,2013-01-20 01:22:00,
2013-01-19 17:27:00,32.9,31.4,30.29,ESE,115,1.0,1.0,94,0.00,,CLR,0.00,VWS V14.01,2013-01-20 01:27:00,
2013-01-19 17:32:00,32.9,31.4,30.29,ESE,115,0.0,0.0,94,0.00,,CLR,0.00,VWS V14.01,2013-01-20 01:32:00,
2013-01-19 17:38:00,32.7,31.2,30.29,ESE,115,0.0,0.0,94,0.00,,CLR,0.00,VWS V14.01,2013-01-20 01:38:00,
2013-01-19 17:43:00,32.4,31.1,30.30,ESE,115,0.0,0.0,95,0.00,,CLR,0.00,VWS V14.01,2013-01-20 01:43:00,
2013-01-19 17:48:00,32.2,30.9,30.30,ESE,116,0.0,0.0,95,0.00,,CLR,0.00,VWS V14.01,2013-01-20 01:48:00,
2013-01-19 17:53:00,32.1,30.8,30.30,ESE,116,0.0,0.0,95,0.00,,CLR,0.00,VWS V14.01,2013-01-20 01:53:00,
2013-01-19 17:58:00,32.0,30.7,30.30,ESE,116,0.0,0.0,95,0.00,,CLR,0.00,VWS V14.01,2013-01-20 01:58:00,
2013-01-19 18:03:00,32.0,30.7,30.30,ESE,116,0.0,0.0,95,0.00,,CLR,0.00,VWS V14.01,2013-01-20 02:03:00,
2013-01-19 18:08:00,31.9,30.6,30.30,ESE,116,0.0,0.0,95,0.00,,CLR,0.00,VWS V14.01,2013-01-20 02:08:00,
2013-01-19 18:14:00,31.7,30.4,30.30,ESE,116,0.0,0.0,95,0.00,,CLR,0.00,VWS V14.01,2013-01-20 02:14:00,
2013-01-19 18:19:00,31.5,30.2,30.30,ESE,116,0.0,0.0,95,0.00,,CLR,0.00,VWS V14.01,2013-01-20 02:19:00,
2013-01-19 18:24:00,31.2,29.9,30.30,ESE,115,0.0,0.0,95,0.00,,CLR,0.00,VWS V14.01,2013-01-20 02:24:00,
2013-01-19 18:29:00,30.9,29.6,30.31,ESE,116,0.0,0.0,95,0.00,,CLR,0.00,VWS V14.01,2013-01-20 02:29:00,
2013-01-19 18:34:00,30.8,29.8,30.31,ESE,116,0.0,0.0,96,0.00,,CLR,0.00,VWS V14.01,2013-01-20 02:34:00,
2013-01-19 18:39:00,30.8,29.8,30.31,ESE,115,0.0,0.0,96,0.00,,CLR,0.00,VWS V14.01,2013-01-20 02:39:00,
2013-01-19 18:44:00,30.6,29.6,30.31,ESE,115,0.0,0.0,96,0.00,,BKN006,0.00,VWS V14.01,2013-01-20 02:44:00,
2013-01-19 18:49:00,30.5,29.5,30.31,ESE,116,0.0,0.0,96,0.00,,BKN006,0.00,VWS V14.01,2013-01-20 02:49:00,
2013-01-19 18:54:00,30.4,29.4,30.31,ESE,115,0.0,0.0,96,0.00,,BKN006,0.00,VWS V14.01,2013-01-20 02:54:00,
2013-01-19 18:59:00,30.5,29.5,30.32,ESE,116,0.0,0.0,96,0.00,,BKN006,0.00,VWS V14.01,2013-01-20 02:59:00,
2013-01-19 19:04:00,30.3,29.3,30.32,ESE,116,0.0,0.0,96,0.00,,OVC006,0.00,VWS V14.01,2013-01-20 03:04:00,
2013-01-19 19:09:00,30.3,29.3,30.32,ESE,116,0.0,1.0,96,0.00,,OVC006,0.00,VWS V14.01,2013-01-20 03:09:00,
2013-01-19 19:15:00,30.4,29.4,30.32,ESE,116,0.0,0.0,96,0.00,,OVC006,0.00,VWS V14.01,2013-01-20 03:15:00,
2013-01-19 19:20:00,30.5,29.5,30.32,ESE,115,0.0,0.0,96,0.00,,OVC006,0.00,VWS V14.01,2013-01-20 03:20:00,
2013-01-19 19:25:00,30.8,29.8,30.33,ESE,116,0.0,0.0,96,0.00,,OVC006,0.00,VWS V14.01,2013-01-20 03:25:00,
2013-01-19 19:30:00,30.9,29.9,30.33,ESE,115,0.0,0.0,96,0.00,,OVC006,0.00,VWS V14.01,2013-01-20 03:30:00,
2013-01-19 19:35:00,31.0,30.0,30.33,ESE,115,0.0,0.0,96,0.00,,OVC006,0.00,VWS V14.01,2013-01-20 03:35:00,
2013-01-19 19:40:00,31.0,30.0,30.33,ESE,116,0.0,0.0,96,0.00,,OVC006,0.00,VWS V14.01,2013-01-20 03:40:00,
2013-01-19 19:45:00,31.0,30.0,30.33,ESE,116,0.0,0.0,96,0.00,,OVC006,0.00,VWS V14.01,2013-01-20 03:45:00,
2013-01-19 19:50:00,31.2,30.2,30.33,ESE,115,0.0,0.0,96,0.00,,OVC006,0.00,VWS V14.01,2013-01-20 03:50:00,
2013-01-19 19:56:00,31.5,30.5,30.33,ESE,116,0.0,0.0,96,0.00,,OVC006,0.00,VWS V14.01,2013-01-20 03:56:00,
2013-01-19 20:01:00,31.8,30.8,30.33,ESE,116,0.0,0.0,96,0.00,,OVC006,0.00,VWS V14.01,2013-01-20 04:01:00,
2013-01-19 20:07:00,32.0,31.0,30.33,ESE,115,0.0,0.0,96,0.00,,OVC006,0.00,VWS V14.01,2013-01-20 04:07:00,
2013-01-19 20:12:00,32.0,31.0,30.33,ESE,115,0.0,0.0,96,0.00,,OVC006,0.00,VWS V14.01,2013-01-20 04:12:00,
2013-01-19 20:17:00,32.0,31.0,30.33,ESE,116,0.0,0.0,96,0.00,,OVC006,0.00,VWS V14.01,2013-01-20 04:17:00,
2013-01-19 20:22:00,32.1,31.1,30.34,ESE,116,0.0,0.0,96,0.00,,OVC006,0.00,VWS V14.01,2013-01-20 04:22:00,
2013-01-19 20:27:00,32.1,31.1,30.34,ESE,115,0.0,0.0,96,0.00,,OVC006,0.00,VWS V14.01,2013-01-20 04:27:00,
2013-01-19 20:32:00,32.4,31.4,30.34,ESE,116,0.0,0.0,96,0.00,,OVC006,0.00,VWS V14.01,2013-01-20 04:32:00,
2013-01-19 20:37:00,32.6,31.6,30.34,ESE,116,0.0,0.0,96,0.00,,OVC006,0.00,VWS V14.01,2013-01-20 04:37:00,
2013-01-19 20:42:00,32.8,31.8,30.34,ESE,116,0.0,0.0,96,0.00,,OVC006,0.00,VWS V14.01,2013-01-20 04:42:00,
2013-01-19 20:47:00,32.8,31.8,30.34,ESE,115,0.0,0.0,96,0.00,,OVC006,0.00,VWS V14.01,2013-01-20 04:47:00,
2013-01-19 20:52:00,32.8,31.8,30.34,ESE,116,0.0,0.0,96,0.00,,OVC006,0.00,VWS V14.01,2013-01-20 04:52:00,
2013-01-19 20:57:00,32.9,31.9,30.34,SSW,195,0.0,0.0,96,0.00,,OVC006,0.00,VWS V14.01,2013-01-20 04:57:00,
2013-01-19 21:00:00,32.9,31.9,30.34,SSW,195,0.0,0.0,96,0.00,,OVC006,0.00,VWS V14.01,2013-01-20 05:00:00,
2013-01-19 21:02:00,32.8,31.8,30.34,SSW,195,1.0,1.0,96,0.00,,OVC006,0.00,VWS V14.01,2013-01-20 05:02:00,
2013-01-19 21:03:00,32.9,31.9,30.34,SSW,195,0.0,1.0,96,0.00,,OVC006,0.00,VWS V14.01,2013-01-20 05:03:00,
2013-01-19 21:08:00,32.9,31.9,30.34,South,184,0.0,1.0,96,0.00,,OVC006,0.00,VWS V14.01,2013-01-20 05:08:00,
2013-01-19 21:13:00,32.9,31.9,30.34,South,184,0.0,0.0,96,0.00,,OVC006,0.00,VWS V14.01,2013-01-20 05:13:00,
2013-01-19 21:18:00,32.9,31.9,30.34,South,184,0.0,0.0,96,0.00,,OVC006,0.00,VWS V14.01,2013-01-20 05:18:00,
2013-01-19 21:23:00,33.0,32.0,30.34,South,184,0.0,0.0,96,0.00,,OVC006,0.00,VWS V14.01,2013-01-20 05:23:00,
2013-01-19 21:28:00,33.0,32.0,30.34,South,184,0.0,0.0,96,0.00,,OVC006,0.00,VWS V14.01,2013-01-20 05:28:00,
2013-01-19 21:33:00,33.0,32.0,30.35,South,186,0.0,1.0,96,0.00,,OVC006,0.00,VWS V14.01,2013-01-20 05:33:00,
2013-01-19 21:38:00,33.0,32.0,30.35,SSW,210,2.0,5.0,96,0.00,,OVC006,0.00,VWS V14.01,2013-01-20 05:38:00,
2013-01-19 21:43:00,32.9,31.9,30.34,SW,218,4.0,4.0,96,0.00,,OVC006,0.00,VWS V14.01,2013-01-20 05:43:00,
2013-01-19 21:48:00,32.9,31.9,30.35,SSW,200,3.0,6.0,96,0.00,,OVC006,0.00,VWS V14.01,2013-01-20 05:48:00,
2013-01-19 21:53:00,32.9,31.9,30.35,South,188,1.0,2.0,96,0.00,,OVC006,0.00,VWS V14.01,2013-01-20 05:53:00,
2013-01-19 21:58:00,32.9,31.9,30.35,South,189,1.0,1.0,96,0.00,,OVC006,0.00,VWS V14.01,2013-01-20 05:58:00,
2013-01-19 22:03:00,32.8,31.8,30.35,SW,226,2.0,2.0,96,0.00,,OVC006,0.00,VWS V14.01,2013-01-20 06:03:00,
2013-01-19 22:08:00,32.8,31.8,30.35,SSW,194,0.0,0.0,96,0.00,,OVC006,0.00,VWS V14.01,2013-01-20 06:08:00,
2013-01-19 22:13:00,32.8,31.8,30.35,WSW,257,2.0,2.0,96,0.00,,OVC006,0.00,VWS V14.01,2013-01-20 06:13:00,
2013-01-19 22:18:00,32.8,31.8,30.35,WSW,248,1.0,2.0,96,0.00,,OVC006,0.00,VWS V14.01,2013-01-20 06:18:00,
2013-01-19 22:23:00,32.7,31.7,30.35,West,269,3.0,4.0,96,0.00,,OVC006,0.00,VWS V14.01,2013-01-20 06:23:00,
2013-01-19 22:28:00,32.7,31.7,30.35,SW,221,1.0,3.0,96,0.00,,OVC006,0.00,VWS V14.01,2013-01-20 06:28:00,
2013-01-19 22:33:00,32.7,31.7,30.35,WNW,299,1.0,2.0,96,0.00,,OVC006,0.00,VWS V14.01,2013-01-20 06:33:00,
2013-01-19 22:38:00,32.7,31.7,30.35,WSW,237,1.0,2.0,96,0.00,,OVC006,0.00,VWS V14.01,2013-01-20 06:38:00,
2013-01-19 22:43:00,32.8,31.8,30.35,SW,229,2.0,3.0,96,0.00,,OVC006,0.00,VWS V14.01,2013-01-20 06:43:00,
2013-01-19 22:48:00,32.7,31.7,30.35,SW,232,0.0,1.0,96,0.00,,OVC005,0.00,VWS V14.01,2013-01-20 06:48:00,
2013-01-19 22:53:00,32.7,31.7,30.35,WSW,257,0.0,1.0,96,0.00,,OVC005,0.00,VWS V14.01,2013-01-20 06:53:00,
2013-01-19 22:58:00,32.7,31.7,30.35,WSW,257,0.0,0.0,96,0.00,,OVC005,0.00,VWS V14.01,2013-01-20 06:58:00,
2013-01-19 23:03:00,32.7,31.7,30.35,WSW,257,0.0,1.0,96,0.00,,OVC005,0.00,VWS V14.01,2013-01-20 07:03:00,
2013-01-19 23:08:00,32.8,31.8,30.35,WSW,257,1.0,1.0,96,0.00,,OVC004,0.00,VWS V14.01,2013-01-20 07:08:00,
2013-01-19 23:13:00,32.8,31.8,30.35,WSW,239,1.0,3.0,96,0.00,,OVC004,0.00,VWS V14.01,2013-01-20 07:13:00,
2013-01-19 23:18:00,32.7,31.7,30.35,WSW,238,1.0,1.0,96,0.00,,OVC004,0.00,VWS V14.01,2013-01-20 07:18:00,
2013-01-19 23:23:00,32.7,31.7,30.35,SW,232,1.0,1.0,96,0.00,,OVC004,0.00,VWS V14.01,2013-01-20 07:23:00,
2013-01-19 23:28:00,32.7,31.7,30.35,SW,222,1.0,2.0,96,0.00,,OVC004,0.00,VWS V14.01,2013-01-20 07:28:00,
2013-01-19 23:33:00,32.7,31.7,30.35,WSW,242,1.0,3.0,96,0.00,,OVC004,0.00,VWS V14.01,2013-01-20 07:33:00,
2013-01-19 23:38:00,32.6,31.6,30.35,WSW,257,1.0,4.0,96,0.00,,OVC004,0.00,VWS V14.01,2013-01-20 07:38:00,
2013-01-19 23:43:00,32.5,31.5,30.35,WSW,246,0.0,2.0,96,0.00,,OVC004,0.00,VWS V14.01,2013-01-20 07:43:00,
2013-01-19 23:48:00,32.5,31.5,30.35,SW,226,1.0,1.0,96,0.00,,OVC004,0.00,VWS V14.01,2013-01-20 07:48:00,
2013-01-19 23:53:00,32.5,31.5,30.35,SSW,200,0.0,1.0,96,0.00,,OVC004,0.00,VWS V14.01,2013-01-20 07:53:00,
2013-01-19 23:58:00,32.4,31.4,30.35,SSW,200,1.0,1.0,96,0.00,,OVC004,0.00,VWS V14.01,2013-01-20 07:58:00,